This is the latest recevied weather packets stored in our database for station/object KC8P. If no packets are shown the sender has not sent any weather packets the latest 10 day(s).
| Time | Temp. | Humidity | Pressure | Rain* | Wind** | Luminosity | Snow |
|---|---|---|---|---|---|---|---|
| 1778267467 | 15.56° C | 37% | 1009 hPa | 0 mm | - | 636 W/m² | - |
| 1778267336 | 15.56° C | 37% | 1009 hPa | 0 mm | - | 518 W/m² | - |
| 1778267270 | 15.56° C | 36% | 1009 hPa | 0 mm | - | 494 W/m² | - |
| 1778267204 | 16.11° C | 36% | 1009 hPa | 0 mm | - | 507 W/m² | - |
| 1778267152 | 16.67° C | 36% | 1009 hPa | 0 mm | - | 462 W/m² | - |
| 1778267074 | 16.67° C | 37% | 1009 hPa | 0 mm | - | 449 W/m² | - |
| 1778267007 | 16.11° C | 37% | 1009 hPa | 0 mm | - | 481 W/m² | - |
| 1778266876 | 16.11° C | 36% | 1009 hPa | 0 mm | - | 586 W/m² | - |
| 1778266811 | 16.67° C | 36% | 1009 hPa | 0 mm | - | 622 W/m² | - |
| 1778266744 | 16.67° C | 36% | 1009 hPa | 0 mm | - | 636 W/m² | - |
| 1778266679 | 16.67° C | 36% | 1009 hPa | 0 mm | - | 641 W/m² | - |
| 1778266614 | 16.11° C | 40% | 1009 hPa | 0 mm | - | 627 W/m² | - |
| 1778266547 | 16.11° C | 37% | 1009 hPa | 0 mm | - | 590 W/m² | - |
| 1778266480 | 16.67° C | 36% | 1009.3 hPa | 0 mm | - | 542 W/m² | - |
| 1778266419 | 16.67° C | 37% | 1009.3 hPa | 0 mm | - | 553 W/m² | - |
| 1778266349 | 16.67° C | 36% | 1009.3 hPa | 0 mm | - | 522 W/m² | - |
| 1778266284 | 16.11° C | 39% | 1009.3 hPa | 0 mm | - | 512 W/m² | - |
| 1778266217 | 16.11° C | 36% | 1009.3 hPa | 0 mm | - | 589 W/m² | - |
| 1778266153 | 16.11° C | 36% | 1009 hPa | 0 mm | - | 613 W/m² | - |
| 1778266086 | 16.11° C | 37% | 1009.3 hPa | 0 mm | - | 562 W/m² | - |
| 1778266021 | 16.11° C | 36% | 1009 hPa | 0 mm | - | 598 W/m² | - |
| 1778265955 | 16.11° C | 37% | 1009.3 hPa | 0 mm | - | 501 W/m² | - |
| 1778265889 | 16.11° C | 38% | 1009.3 hPa | 0 mm | - | 507 W/m² | - |
| 1778265824 | 16.11° C | 38% | 1009.3 hPa | 0 mm | - | 559 W/m² | - |
| 1778265758 | 16.11° C | 37% | 1009.3 hPa | 0 mm | - | 499 W/m² | - |
* Rain latest hour (hover to see other rain measurements)
** Current wind speed in m/s (hover to see current wind gust speed)